Location: Quedlinburg
(51.7921°N, 11.1414°E)
Time: 04:19:33
(UTC+02:00)

STRAND 1 - Pass Details

Date: 24 March 2026
Orbit: 761 x 775 km, 98.4° (Epoch: 16 April)

Event Time Altitude Azimuth Distance (km) Brightness Sun altitude
Rises 03:55:48 0° 131° (SE) 3,234 ? -20.4°
Reaches altitude 10° 03:58:20 10° 120° (ESE) 2,309 ? -20.1°
Maximum altitude 04:02:42 30° 61° (ENE) 1,358 ? -19.5°
Drops below altitude 10° 04:07:04 10° 2° (N) 2,314 ? -18.9°
Sets 04:09:37 0° 352° (N) 3,243 ? -18.6°
